STARLINK-2247

decayed
NORAD ID: 48446 Int'l Des: 2021-040 Owner: SPXS Country: US Constellation: starlink
LEOCIRCULAR
Gruppe

Über STARLINK-2247

Beschreibung wird geladen...

Höhenverlauf

Altitude vs Time

uPlot chart will show altitude changes over time

Zweizeiliger Elementsatz

1 48446U 21040U 24257.93208104 .13492659 11878-4 61266-2 0 9991
2 48446 53.0428 78.2550 0004879 289.0859 225.6036 16.21283769186460
Epoch: 13. Sept. 2024 • Age: 8657 hours

Aktueller Status

Position data unavailable
Startdatum 9. Mai 2021
Alter 4.3 years
Verglühungsdatum 14. Sept. 2024
Typ internet

Technische Details

Klassifizierung Payload
Masse 260.00 kg
Trockenmasse 248.00 kg
Gesamtmasse 260.00 kg
Länge 0.20 m
Durchmesser 2.80 m
Spannweite 9.00 m
Form Box + pan
Hersteller SPXS
Bus-Typ Starlink
Phasenstatus Unknown Transfer Status
Besitzer/Staat SPXS/US

Große Konstellationen

Loading constellations...